Location: ?????????
(38.4921°N, 22.9787°E)
Time: 02:22:15
(UTC+00:00)

NOSS 2-1 (C) - Pass Details

Date: 08 December 2025
Orbit: 375 x 1685 km, 63.3° (Epoch: 15 January)

Event Time Altitude Azimuth Distance (km) Brightness Sun altitude
Exits shadow 04:01:01 25° 335° (NNW) 1,110 4.5 -17.5°
Maximum altitude 04:03:13 75° 56° (ENE) 631 3.6 -17.1°
Drops below altitude 10° 04:08:24 10° 143° (SE) 2,340 7.3 -16.1°
Sets 04:11:18 0° 145° (SE) 3,501 8.3 -15.5°
